Time,TemperatureF,DewpointF,PressureIn,WindDirection,WindDirectionDegrees,WindSpeedMPH,WindSpeedGustMPH,Humidity,HourlyPrecipIn,Conditions,Clouds,dailyrainin,SoftwareType,DateUTC
2013-04-13 00:00:00,32.7,14.0,29.62,East,90,0.0,4.0,44,0.00,,,0.00,Rainwise IP-100,2013-04-13 04:00:00,
2013-04-13 00:01:00,32.5,14.0,29.62,East,90,1.0,6.0,44,0.00,,,0.00,Rainwise IP-100,2013-04-13 04:01:00,
2013-04-13 00:06:00,32.5,14.0,29.61,NW,315,1.0,4.0,44,0.00,,,0.00,Rainwise IP-100,2013-04-13 04:06:00,
2013-04-13 00:11:00,32.7,14.0,29.60,SE,135,6.0,7.0,44,0.00,,,0.00,Rainwise IP-100,2013-04-13 04:11:00,
2013-04-13 00:16:00,32.7,14.0,29.61,NW,315,2.0,7.0,43,0.00,,,0.00,Rainwise IP-100,2013-04-13 04:16:00,
2013-04-13 00:21:00,32.7,14.0,29.61,SSW,202,0.0,4.0,43,0.00,,,0.00,Rainwise IP-100,2013-04-13 04:21:00,
2013-04-13 00:26:00,32.7,14.0,29.61,SSE,157,0.0,2.0,43,0.00,,,0.00,Rainwise IP-100,2013-04-13 04:26:00,
2013-04-13 00:31:00,32.7,14.0,29.60,ESE,112,1.0,3.0,43,0.00,,,0.00,Rainwise IP-100,2013-04-13 04:31:00,
2013-04-13 00:36:00,32.8,14.0,29.60,NNW,337,4.0,4.0,43,0.00,,,0.01,Rainwise IP-100,2013-04-13 04:36:00,
2013-04-13 00:41:00,32.8,14.0,29.60,ESE,112,2.0,5.0,43,0.06,,,0.01,Rainwise IP-100,2013-04-13 04:41:00,
2013-04-13 00:46:00,32.9,14.0,29.59,WSW,247,1.0,8.0,43,0.06,,,0.01,Rainwise IP-100,2013-04-13 04:46:00,
2013-04-13 00:51:00,32.9,14.0,29.60,WNW,292,2.0,3.0,43,0.00,,,0.01,Rainwise IP-100,2013-04-13 04:51:00,
2013-04-13 00:56:00,32.9,14.0,29.60,East,90,0.0,2.0,43,0.00,,,0.01,Rainwise IP-100,2013-04-13 04:56:00,
2013-04-13 01:01:00,32.9,14.0,29.60,North,360,0.0,4.0,42,0.00,,,0.01,Rainwise IP-100,2013-04-13 05:01:00,
2013-04-13 01:07:00,32.9,14.0,29.60,WNW,292,1.0,2.0,42,0.00,,,0.01,Rainwise IP-100,2013-04-13 05:07:00,
2013-04-13 01:12:00,32.9,14.0,29.60,ESE,112,0.0,2.0,42,0.00,,,0.01,Rainwise IP-100,2013-04-13 05:12:00,
2013-04-13 01:17:00,32.9,14.0,29.59,North,360,0.0,2.0,42,0.00,,,0.01,Rainwise IP-100,2013-04-13 05:17:00,
2013-04-13 01:22:00,32.9,14.0,29.57,East,90,1.0,2.0,42,0.06,,,0.02,Rainwise IP-100,2013-04-13 05:22:00,
2013-04-13 01:27:00,32.9,14.0,29.58,WSW,247,2.0,5.0,42,0.06,,,0.02,Rainwise IP-100,2013-04-13 05:27:00,
2013-04-13 01:32:00,32.9,14.0,29.57,SSW,202,1.0,2.0,42,0.00,,,0.02,Rainwise IP-100,2013-04-13 05:32:00,
2013-04-13 01:37:00,32.9,14.0,29.56,WSW,247,2.0,4.0,42,0.00,,,0.02,Rainwise IP-100,2013-04-13 05:37:00,
2013-04-13 01:42:00,32.9,14.0,29.58,NNW,337,0.0,3.0,42,0.00,,,0.02,Rainwise IP-100,2013-04-13 05:42:00,
2013-04-13 01:47:00,32.9,14.0,29.59,NW,315,0.0,2.0,42,0.00,,,0.02,Rainwise IP-100,2013-04-13 05:47:00,
2013-04-13 01:52:00,32.9,14.0,29.58,NNW,337,1.0,5.0,42,0.00,,,0.02,Rainwise IP-100,2013-04-13 05:52:00,
2013-04-13 01:57:00,32.9,14.0,29.58,SW,225,0.0,2.0,42,0.00,,,0.02,Rainwise IP-100,2013-04-13 05:57:00,
2013-04-13 02:02:00,32.9,14.0,29.58,WNW,292,1.0,4.0,42,0.06,,,0.03,Rainwise IP-100,2013-04-13 06:02:00,
2013-04-13 02:07:00,32.8,14.0,29.58,NNW,337,1.0,4.0,42,0.06,,,0.03,Rainwise IP-100,2013-04-13 06:07:00,
2013-04-13 02:12:00,32.7,14.0,29.57,East,90,2.0,4.0,42,0.00,,,0.03,Rainwise IP-100,2013-04-13 06:12:00,
2013-04-13 02:17:00,32.7,14.0,29.56,West,270,2.0,3.0,42,0.00,,,0.03,Rainwise IP-100,2013-04-13 06:17:00,
2013-04-13 02:22:00,32.8,14.0,29.57,North,360,1.0,2.0,42,0.00,,,0.03,Rainwise IP-100,2013-04-13 06:22:00,
2013-04-13 02:27:00,32.9,14.0,29.56,ESE,112,0.0,7.0,42,0.00,,,0.03,Rainwise IP-100,2013-04-13 06:27:00,
2013-04-13 02:32:00,33.0,14.0,29.56,ESE,112,1.0,5.0,42,0.06,,,0.04,Rainwise IP-100,2013-04-13 06:32:00,
2013-04-13 02:37:00,33.1,14.0,29.56,East,90,2.0,4.0,42,0.06,,,0.04,Rainwise IP-100,2013-04-13 06:37:00,
2013-04-13 02:42:00,33.2,14.0,29.56,East,90,0.0,4.0,42,0.00,,,0.04,Rainwise IP-100,2013-04-13 06:42:00,
2013-04-13 02:47:00,33.2,14.0,29.56,NNW,337,2.0,6.0,42,0.00,,,0.04,Rainwise IP-100,2013-04-13 06:47:00,
2013-04-13 02:52:00,33.2,14.0,29.56,NNW,337,1.0,5.0,41,0.00,,,0.04,Rainwise IP-100,2013-04-13 06:52:00,
2013-04-13 02:57:00,33.3,14.0,29.56,North,360,0.0,4.0,41,0.00,,,0.04,Rainwise IP-100,2013-04-13 06:57:00,
2013-04-13 03:02:00,33.2,14.0,29.55,NW,315,1.0,4.0,41,0.00,,,0.04,Rainwise IP-100,2013-04-13 07:02:00,
2013-04-13 03:07:00,33.2,14.0,29.54,WNW,292,2.0,2.0,41,0.06,,,0.05,Rainwise IP-100,2013-04-13 07:07:00,
2013-04-13 03:12:00,33.0,14.0,29.54,SSE,157,1.0,4.0,41,0.06,,,0.05,Rainwise IP-100,2013-04-13 07:12:00,
2013-04-13 03:17:00,32.9,14.0,29.54,East,90,2.0,4.0,41,0.00,,,0.05,Rainwise IP-100,2013-04-13 07:17:00,
2013-04-13 03:22:00,32.9,14.0,29.52,West,270,3.0,4.0,41,0.00,,,0.05,Rainwise IP-100,2013-04-13 07:22:00,
2013-04-13 03:27:00,32.8,14.0,29.52,WNW,292,1.0,6.0,41,0.00,,,0.05,Rainwise IP-100,2013-04-13 07:27:00,
2013-04-13 03:32:00,32.8,14.0,29.52,NW,315,0.0,3.0,41,0.00,,,0.05,Rainwise IP-100,2013-04-13 07:32:00,
2013-04-13 03:37:00,32.8,14.0,29.51,SSW,202,1.0,7.0,41,0.00,,,0.05,Rainwise IP-100,2013-04-13 07:37:00,
2013-04-13 03:43:00,32.7,14.0,29.51,West,270,1.0,5.0,41,0.00,,,0.05,Rainwise IP-100,2013-04-13 07:43:00,
2013-04-13 03:48:00,32.7,14.0,29.51,East,90,2.0,2.0,41,0.00,,,0.05,Rainwise IP-100,2013-04-13 07:48:00,
2013-04-13 03:53:00,32.7,14.0,29.50,WNW,292,2.0,5.0,41,0.00,,,0.05,Rainwise IP-100,2013-04-13 07:53:00,
2013-04-13 03:58:00,32.7,14.0,29.49,North,360,1.0,5.0,41,0.00,,,0.06,Rainwise IP-100,2013-04-13 07:58:00,
2013-04-13 04:03:00,32.8,14.0,29.49,West,270,2.0,6.0,40,0.06,,,0.06,Rainwise IP-100,2013-04-13 08:03:00,
2013-04-13 04:08:00,32.8,14.0,29.51,NNW,337,1.0,3.0,40,0.06,,,0.06,Rainwise IP-100,2013-04-13 08:08:00,
2013-04-13 04:13:00,32.8,14.0,29.50,WNW,292,2.0,11.0,40,0.00,,,0.06,Rainwise IP-100,2013-04-13 08:13:00,
2013-04-13 04:18:00,32.9,14.0,29.51,NW,315,2.0,4.0,40,0.00,,,0.06,Rainwise IP-100,2013-04-13 08:18:00,
2013-04-13 04:23:00,32.9,14.0,29.53,NNW,337,1.0,4.0,40,0.00,,,0.06,Rainwise IP-100,2013-04-13 08:23:00,
2013-04-13 04:28:00,32.9,14.0,29.54,NNW,337,2.0,3.0,40,0.00,,,0.06,Rainwise IP-100,2013-04-13 08:28:00,
2013-04-13 04:33:00,32.8,14.0,29.53,NNW,337,0.0,4.0,40,0.00,,,0.06,Rainwise IP-100,2013-04-13 08:33:00,
2013-04-13 04:38:00,32.8,14.0,29.53,East,90,0.0,2.0,40,0.00,,,0.06,Rainwise IP-100,2013-04-13 08:38:00,
2013-04-13 04:43:00,32.8,14.0,29.52,ESE,112,0.0,4.0,40,0.06,,,0.07,Rainwise IP-100,2013-04-13 08:43:00,
2013-04-13 04:48:00,32.8,11.0,29.52,SSW,202,2.0,5.0,39,0.06,,,0.07,Rainwise IP-100,2013-04-13 08:48:00,
2013-04-13 04:53:00,32.8,11.0,29.53,NNW,337,0.0,2.0,39,0.00,,,0.07,Rainwise IP-100,2013-04-13 08:53:00,
2013-04-13 04:58:00,32.8,11.0,29.52,NW,315,1.0,4.0,39,0.00,,,0.07,Rainwise IP-100,2013-04-13 08:58:00,
2013-04-13 05:03:00,32.9,11.0,29.54,North,360,1.0,4.0,39,0.00,,,0.07,Rainwise IP-100,2013-04-13 09:03:00,
2013-04-13 05:08:00,32.9,11.0,29.54,North,360,0.0,4.0,39,0.00,,,0.07,Rainwise IP-100,2013-04-13 09:08:00,
2013-04-13 05:13:00,32.9,11.0,29.54,WNW,292,0.0,5.0,39,0.00,,,0.07,Rainwise IP-100,2013-04-13 09:13:00,
2013-04-13 05:18:00,32.9,11.0,29.55,NW,315,0.0,2.0,39,0.00,,,0.07,Rainwise IP-100,2013-04-13 09:18:00,
2013-04-13 05:23:00,32.9,11.0,29.55,West,270,0.0,3.0,39,0.06,,,0.08,Rainwise IP-100,2013-04-13 09:23:00,
2013-04-13 05:28:00,32.9,11.0,29.54,NNW,337,0.0,3.0,39,0.12,,,0.09,Rainwise IP-100,2013-04-13 09:28:00,
2013-04-13 05:33:00,32.7,11.0,29.53,East,90,0.0,2.0,39,0.12,,,0.10,Rainwise IP-100,2013-04-13 09:33:00,
2013-04-13 05:38:00,32.7,11.0,29.51,North,360,0.0,4.0,39,0.06,,,0.10,Rainwise IP-100,2013-04-13 09:38:00,
2013-04-13 05:43:00,32.6,11.0,29.50,NW,315,1.0,6.0,39,0.06,,,0.11,Rainwise IP-100,2013-04-13 09:43:00,
2013-04-13 05:48:00,32.5,11.0,29.49,North,360,2.0,4.0,39,0.06,,,0.11,Rainwise IP-100,2013-04-13 09:48:00,
2013-04-13 05:53:00,32.6,11.0,29.48,NNW,337,0.0,4.0,39,0.06,,,0.12,Rainwise IP-100,2013-04-13 09:53:00,
2013-04-13 05:58:00,32.6,11.0,29.48,NW,315,1.0,5.0,39,0.06,,,0.12,Rainwise IP-100,2013-04-13 09:58:00,
2013-04-13 06:03:00,32.6,11.0,29.48,East,90,0.0,3.0,39,0.06,,,0.13,Rainwise IP-100,2013-04-13 10:03:00,
2013-04-13 06:08:00,32.7,11.0,29.49,ESE,112,0.0,3.0,39,0.06,,,0.13,Rainwise IP-100,2013-04-13 10:08:00,
2013-04-13 06:13:00,32.7,11.0,29.49,East,90,1.0,5.0,39,0.00,,,0.13,Rainwise IP-100,2013-04-13 10:13:00,
2013-04-13 06:18:00,32.8,11.0,29.49,WSW,247,1.0,4.0,38,0.00,,,0.13,Rainwise IP-100,2013-04-13 10:18:00,
2013-04-13 06:23:00,32.8,11.0,29.50,East,90,2.0,3.0,38,0.06,,,0.14,Rainwise IP-100,2013-04-13 10:23:00,
2013-04-13 06:28:00,32.9,11.0,29.51,SW,225,0.0,4.0,38,0.06,,,0.14,Rainwise IP-100,2013-04-13 10:28:00,
2013-04-13 06:33:00,32.9,11.0,29.50,North,360,0.0,4.0,37,0.06,,,0.15,Rainwise IP-100,2013-04-13 10:33:00,
2013-04-13 06:38:00,32.9,11.0,29.50,East,90,3.0,3.0,37,0.06,,,0.15,Rainwise IP-100,2013-04-13 10:38:00,
2013-04-13 06:43:00,32.9,11.0,29.48,SSW,202,1.0,4.0,36,0.06,,,0.16,Rainwise IP-100,2013-04-13 10:43:00,
2013-04-13 06:48:00,33.0,8.0,29.49,WSW,247,2.0,4.0,34,0.06,,,0.16,Rainwise IP-100,2013-04-13 10:48:00,
2013-04-13 06:53:00,33.1,8.0,29.50,NW,315,3.0,3.0,34,0.00,,,0.16,Rainwise IP-100,2013-04-13 10:53:00,
2013-04-13 06:58:00,33.1,8.0,29.50,East,90,2.0,4.0,33,0.06,,,0.17,Rainwise IP-100,2013-04-13 10:58:00,
2013-04-13 07:03:00,33.1,8.0,29.46,WSW,247,2.0,5.0,33,0.06,,,0.17,Rainwise IP-100,2013-04-13 11:03:00,
2013-04-13 07:08:00,33.1,8.0,29.47,West,270,2.0,6.0,33,0.00,,,0.17,Rainwise IP-100,2013-04-13 11:08:00,
2013-04-13 07:13:00,33.2,8.0,29.47,WNW,292,3.0,6.0,33,0.00,,,0.17,Rainwise IP-100,2013-04-13 11:13:00,
2013-04-13 07:18:00,33.3,8.0,29.49,WNW,292,0.0,6.0,33,0.00,,,0.17,Rainwise IP-100,2013-04-13 11:18:00,
2013-04-13 07:23:00,33.3,8.0,29.50,NW,315,1.0,4.0,33,0.00,,,0.17,Rainwise IP-100,2013-04-13 11:23:00,
2013-04-13 07:28:00,33.3,8.0,29.50,NNW,337,0.0,3.0,33,0.00,,,0.17,Rainwise IP-100,2013-04-13 11:28:00,
2013-04-13 07:33:00,33.4,8.0,29.50,East,90,0.0,4.0,32,0.06,,,0.18,Rainwise IP-100,2013-04-13 11:33:00,
2013-04-13 07:38:00,33.6,8.0,29.50,NNW,337,3.0,3.0,32,0.06,,,0.18,Rainwise IP-100,2013-04-13 11:38:00,
2013-04-13 07:43:00,33.7,8.0,29.49,NNW,337,0.0,4.0,32,0.00,,,0.18,Rainwise IP-100,2013-04-13 11:43:00,
2013-04-13 07:48:00,33.8,8.0,29.49,West,270,0.0,2.0,32,0.00,,,0.18,Rainwise IP-100,2013-04-13 11:48:00,
2013-04-13 07:53:00,33.8,8.0,29.49,NW,315,2.0,4.0,31,0.06,,,0.19,Rainwise IP-100,2013-04-13 11:53:00,
2013-04-13 07:58:00,33.9,8.0,29.49,North,360,1.0,2.0,31,0.06,,,0.19,Rainwise IP-100,2013-04-13 11:58:00,
2013-04-13 08:03:00,33.9,8.0,29.49,NNW,337,0.0,3.0,31,0.00,,,0.19,Rainwise IP-100,2013-04-13 12:03:00,
2013-04-13 08:08:00,33.9,8.0,29.49,NW,315,0.0,4.0,31,0.00,,,0.19,Rainwise IP-100,2013-04-13 12:08:00,
2013-04-13 08:13:00,33.9,8.0,29.49,NW,315,1.0,2.0,30,0.00,,,0.19,Rainwise IP-100,2013-04-13 12:13:00,
2013-04-13 08:18:00,34.2,8.0,29.49,North,360,0.0,2.0,30,0.06,,,0.20,Rainwise IP-100,2013-04-13 12:18:00,
2013-04-13 08:23:00,34.3,8.0,29.49,NW,315,2.0,2.0,30,0.06,,,0.20,Rainwise IP-100,2013-04-13 12:23:00,
2013-04-13 08:28:00,34.4,8.0,29.50,North,360,1.0,2.0,29,0.00,,,0.20,Rainwise IP-100,2013-04-13 12:28:00,
2013-04-13 08:33:00,34.5,8.0,29.49,WNW,292,2.0,4.0,29,0.00,,,0.21,Rainwise IP-100,2013-04-13 12:33:00,
2013-04-13 08:38:00,34.6,8.0,29.50,SSE,157,1.0,5.0,29,0.06,,,0.21,Rainwise IP-100,2013-04-13 12:38:00,
2013-04-13 08:43:00,34.7,8.0,29.49,North,360,1.0,3.0,28,0.06,,,0.21,Rainwise IP-100,2013-04-13 12:43:00,
2013-04-13 08:48:00,34.9,8.0,29.49,West,270,0.0,3.0,28,0.00,,,0.21,Rainwise IP-100,2013-04-13 12:48:00,
2013-04-13 08:53:00,34.9,4.0,29.49,SSE,157,2.0,3.0,27,0.00,,,0.22,Rainwise IP-100,2013-04-13 12:53:00,
2013-04-13 08:58:00,34.9,4.0,29.50,NW,315,2.0,4.0,27,0.06,,,0.22,Rainwise IP-100,2013-04-13 12:58:00,
2013-04-13 09:03:00,35.1,4.0,29.50,WSW,247,1.0,4.0,27,0.06,,,0.22,Rainwise IP-100,2013-04-13 13:03:00,
2013-04-13 09:08:00,35.0,4.0,29.50,North,360,0.0,4.0,27,0.00,,,0.22,Rainwise IP-100,2013-04-13 13:08:00,
2013-04-13 09:13:00,34.9,4.0,29.51,NNW,337,1.0,4.0,27,0.00,,,0.22,Rainwise IP-100,2013-04-13 13:13:00,
2013-04-13 09:18:00,35.1,4.0,29.52,North,360,1.0,2.0,26,0.00,,,0.22,Rainwise IP-100,2013-04-13 13:18:00,
2013-04-13 09:23:00,34.9,4.0,29.52,NNW,337,0.0,4.0,26,0.00,,,0.22,Rainwise IP-100,2013-04-13 13:23:00,
2013-04-13 09:28:00,34.9,4.0,29.52,NW,315,2.0,3.0,26,0.06,,,0.23,Rainwise IP-100,2013-04-13 13:28:00,
2013-04-13 09:33:00,35.0,4.0,29.52,ESE,112,1.0,2.0,26,0.06,,,0.23,Rainwise IP-100,2013-04-13 13:33:00,
2013-04-13 09:38:00,35.3,4.0,29.52,NW,315,1.0,2.0,26,0.00,,,0.23,Rainwise IP-100,2013-04-13 13:38:00,
2013-04-13 09:43:00,35.6,4.0,29.52,NW,315,2.0,4.0,25,0.00,,,0.23,Rainwise IP-100,2013-04-13 13:43:00,
2013-04-13 09:48:00,35.8,4.0,29.52,NNW,337,2.0,3.0,25,0.00,,,0.23,Rainwise IP-100,2013-04-13 13:48:00,
2013-04-13 09:53:00,35.8,4.0,29.52,North,360,1.0,2.0,25,0.00,,,0.23,Rainwise IP-100,2013-04-13 13:53:00,
2013-04-13 09:58:00,35.7,4.0,29.52,NNW,337,2.0,4.0,25,0.00,,,0.23,Rainwise IP-100,2013-04-13 13:58:00,
2013-04-13 10:03:00,35.7,4.0,29.52,NNW,337,0.0,4.0,25,0.00,,,0.23,Rainwise IP-100,2013-04-13 14:03:00,
2013-04-13 10:08:00,35.7,4.0,29.52,NW,315,1.0,6.0,25,0.00,,,0.23,Rainwise IP-100,2013-04-13 14:08:00,
2013-04-13 10:13:00,35.7,4.0,29.52,NW,315,2.0,4.0,25,0.00,,,0.23,Rainwise IP-100,2013-04-13 14:13:00,
2013-04-13 10:18:00,35.7,4.0,29.52,West,270,1.0,4.0,24,0.00,,,0.23,Rainwise IP-100,2013-04-13 14:18:00,
2013-04-13 10:23:00,35.7,4.0,29.53,NNW,337,1.0,3.0,24,0.00,,,0.23,Rainwise IP-100,2013-04-13 14:23:00,
2013-04-13 10:28:00,35.8,4.0,29.53,North,360,1.0,4.0,24,0.00,,,0.23,Rainwise IP-100,2013-04-13 14:28:00,
2013-04-13 10:33:00,35.9,4.0,29.53,WNW,292,1.0,4.0,24,0.00,,,0.23,Rainwise IP-100,2013-04-13 14:33:00,
2013-04-13 10:38:00,35.9,4.0,29.53,NNW,337,2.0,4.0,24,0.00,,,0.23,Rainwise IP-100,2013-04-13 14:38:00,
2013-04-13 10:43:00,35.9,4.0,29.52,NW,315,2.0,6.0,24,0.00,,,0.23,Rainwise IP-100,2013-04-13 14:43:00,
2013-04-13 10:48:00,36.3,4.0,29.52,NNW,337,2.0,4.0,24,0.00,,,0.23,Rainwise IP-100,2013-04-13 14:48:00,
2013-04-13 10:53:00,36.2,4.0,29.52,NNW,337,2.0,6.0,24,0.00,,,0.23,Rainwise IP-100,2013-04-13 14:53:00,
2013-04-13 10:58:00,36.3,4.0,29.53,NNW,337,2.0,6.0,24,0.00,,,0.23,Rainwise IP-100,2013-04-13 14:58:00,
2013-04-13 11:04:00,36.2,4.0,29.53,NW,315,1.0,6.0,24,0.00,,,0.23,Rainwise IP-100,2013-04-13 15:04:00,
2013-04-13 11:09:00,36.3,4.0,29.53,North,360,1.0,3.0,24,0.00,,,0.23,Rainwise IP-100,2013-04-13 15:09:00,
2013-04-13 11:14:00,36.5,4.0,29.53,NW,315,1.0,3.0,24,0.00,,,0.23,Rainwise IP-100,2013-04-13 15:14:00,
2013-04-13 11:19:00,36.8,4.0,29.53,NNW,337,2.0,2.0,24,0.00,,,0.23,Rainwise IP-100,2013-04-13 15:19:00,
2013-04-13 11:24:00,36.9,4.0,29.53,NW,315,2.0,4.0,24,0.00,,,0.23,Rainwise IP-100,2013-04-13 15:24:00,
2013-04-13 11:29:00,37.3,4.0,29.53,SW,225,0.0,2.0,24,0.00,,,0.23,Rainwise IP-100,2013-04-13 15:29:00,
2013-04-13 11:34:00,37.2,8.0,29.54,NNW,337,2.0,4.0,25,0.00,,,0.23,Rainwise IP-100,2013-04-13 15:34:00,
2013-04-13 11:39:00,36.7,8.0,29.54,NNW,337,2.0,6.0,28,0.00,,,0.23,Rainwise IP-100,2013-04-13 15:39:00,
2013-04-13 11:44:00,37.0,8.0,29.54,NW,315,0.0,4.0,27,0.00,,,0.23,Rainwise IP-100,2013-04-13 15:44:00,
2013-04-13 11:49:00,37.1,8.0,29.54,NW,315,0.0,3.0,28,0.00,,,0.23,Rainwise IP-100,2013-04-13 15:49:00,
2013-04-13 11:54:00,37.3,8.0,29.54,North,360,0.0,3.0,28,0.00,,,0.23,Rainwise IP-100,2013-04-13 15:54:00,
2013-04-13 11:59:00,37.5,8.0,29.54,NNW,337,2.0,4.0,28,0.00,,,0.23,Rainwise IP-100,2013-04-13 15:59:00,
2013-04-13 12:04:00,37.2,11.0,29.54,NW,315,1.0,5.0,32,0.00,,,0.23,Rainwise IP-100,2013-04-13 16:04:00,
2013-04-13 12:09:00,37.4,11.0,29.54,WNW,292,2.0,4.0,31,0.00,,,0.23,Rainwise IP-100,2013-04-13 16:09:00,
2013-04-13 12:14:00,37.3,11.0,29.54,SW,225,0.0,4.0,31,0.00,,,0.23,Rainwise IP-100,2013-04-13 16:14:00,
2013-04-13 12:19:00,37.5,11.0,29.54,NW,315,2.0,2.0,31,0.00,,,0.23,Rainwise IP-100,2013-04-13 16:19:00,
2013-04-13 12:24:00,37.4,11.0,29.53,West,270,1.0,5.0,33,0.00,,,0.23,Rainwise IP-100,2013-04-13 16:24:00,
2013-04-13 12:29:00,37.5,11.0,29.54,West,270,2.0,4.0,32,0.00,,,0.23,Rainwise IP-100,2013-04-13 16:29:00,
2013-04-13 12:34:00,37.6,11.0,29.54,North,360,0.0,4.0,32,0.00,,,0.23,Rainwise IP-100,2013-04-13 16:34:00,
2013-04-13 12:39:00,37.7,14.0,29.53,WNW,292,3.0,4.0,33,0.00,,,0.23,Rainwise IP-100,2013-04-13 16:39:00,
2013-04-13 12:44:00,37.8,14.0,29.53,West,270,0.0,4.0,34,0.00,,,0.23,Rainwise IP-100,2013-04-13 16:44:00,
2013-04-13 12:49:00,38.2,14.0,29.54,North,360,2.0,4.0,34,0.00,,,0.23,Rainwise IP-100,2013-04-13 16:49:00,
2013-04-13 12:54:00,38.6,16.0,29.54,NNW,337,3.0,6.0,36,0.00,,,0.23,Rainwise IP-100,2013-04-13 16:54:00,
2013-04-13 12:59:00,39.2,16.0,29.53,West,270,2.0,8.0,38,0.00,,,0.23,Rainwise IP-100,2013-04-13 16:59:00,
2013-04-13 13:04:00,39.2,21.0,29.54,NNW,337,2.0,7.0,45,0.00,,,0.23,Rainwise IP-100,2013-04-13 17:04:00,
2013-04-13 13:09:00,39.6,21.0,29.54,NW,315,1.0,6.0,44,0.00,,,0.23,Rainwise IP-100,2013-04-13 17:09:00,
2013-04-13 13:14:00,39.6,23.0,29.54,WSW,247,2.0,5.0,48,0.00,,,0.23,Rainwise IP-100,2013-04-13 17:14:00,
2013-04-13 13:19:00,39.6,24.0,29.54,WSW,247,2.0,5.0,50,0.00,,,0.23,Rainwise IP-100,2013-04-13 17:19:00,
2013-04-13 13:24:00,39.7,23.0,29.54,North,360,1.0,5.0,47,0.00,,,0.23,Rainwise IP-100,2013-04-13 17:24:00,
2013-04-13 13:29:00,39.8,24.0,29.54,NW,315,1.0,5.0,50,0.00,,,0.23,Rainwise IP-100,2013-04-13 17:29:00,
2013-04-13 13:34:00,39.9,23.0,29.54,West,270,2.0,4.0,46,0.00,,,0.23,Rainwise IP-100,2013-04-13 17:34:00,
2013-04-13 13:39:00,40.2,21.0,29.55,NNW,337,2.0,3.0,45,0.00,,,0.23,Rainwise IP-100,2013-04-13 17:39:00,
2013-04-13 13:44:00,39.9,23.0,29.55,WSW,247,0.0,6.0,48,0.00,,,0.23,Rainwise IP-100,2013-04-13 17:44:00,
2013-04-13 13:49:00,40.0,24.0,29.55,NW,315,2.0,5.0,51,0.00,,,0.23,Rainwise IP-100,2013-04-13 17:49:00,
2013-04-13 13:54:00,40.4,23.0,29.55,WSW,247,2.0,4.0,49,0.00,,,0.23,Rainwise IP-100,2013-04-13 17:54:00,
2013-04-13 13:59:00,40.5,26.0,29.55,NNW,337,2.0,4.0,54,0.00,,,0.23,Rainwise IP-100,2013-04-13 17:59:00,
2013-04-13 14:04:00,40.4,26.0,29.55,North,360,2.0,7.0,56,0.00,,,0.23,Rainwise IP-100,2013-04-13 18:04:00,
2013-04-13 14:09:00,40.2,26.0,29.54,SW,225,1.0,4.0,54,0.00,,,0.23,Rainwise IP-100,2013-04-13 18:09:00,
2013-04-13 14:14:00,40.1,24.0,29.54,NNW,337,3.0,6.0,53,0.00,,,0.23,Rainwise IP-100,2013-04-13 18:14:00,
2013-04-13 14:19:00,40.0,24.0,29.54,NNW,337,3.0,6.0,52,0.00,,,0.23,Rainwise IP-100,2013-04-13 18:19:00,
2013-04-13 14:24:00,39.9,24.0,29.54,West,270,1.0,6.0,51,0.00,,,0.23,Rainwise IP-100,2013-04-13 18:24:00,
2013-04-13 14:27:00,39.9,23.0,29.54,North,360,4.0,6.0,49,0.00,,,0.23,Rainwise IP-100,2013-04-13 18:27:00,
2013-04-13 14:31:00,40.1,23.0,29.54,North,360,1.0,6.0,48,0.00,,,0.23,Rainwise IP-100,2013-04-13 18:31:00,
2013-04-13 14:36:00,40.2,24.0,29.54,WNW,292,5.0,5.0,50,0.00,,,0.23,Rainwise IP-100,2013-04-13 18:36:00,
2013-04-13 14:41:00,40.1,24.0,29.54,NW,315,2.0,6.0,52,0.00,,,0.23,Rainwise IP-100,2013-04-13 18:41:00,
2013-04-13 14:46:00,40.2,24.0,29.54,WSW,247,1.0,7.0,52,0.00,,,0.23,Rainwise IP-100,2013-04-13 18:46:00,
2013-04-13 14:51:00,40.4,26.0,29.55,WSW,247,2.0,6.0,54,0.00,,,0.23,Rainwise IP-100,2013-04-13 18:51:00,
2013-04-13 14:56:00,40.6,26.0,29.55,WNW,292,1.0,2.0,53,0.00,,,0.23,Rainwise IP-100,2013-04-13 18:56:00,
2013-04-13 15:01:00,40.6,26.0,29.55,NNW,337,2.0,4.0,54,0.00,,,0.23,Rainwise IP-100,2013-04-13 19:01:00,
2013-04-13 15:06:00,40.2,24.0,29.55,NW,315,4.0,6.0,53,0.00,,,0.23,Rainwise IP-100,2013-04-13 19:06:00,
2013-04-13 15:11:00,40.1,24.0,29.55,WSW,247,0.0,4.0,51,0.00,,,0.23,Rainwise IP-100,2013-04-13 19:11:00,
2013-04-13 15:16:00,40.1,24.0,29.55,West,270,1.0,4.0,52,0.00,,,0.23,Rainwise IP-100,2013-04-13 19:16:00,
2013-04-13 15:21:00,40.1,23.0,29.55,West,270,2.0,4.0,49,0.00,,,0.23,Rainwise IP-100,2013-04-13 19:21:00,
2013-04-13 15:26:00,40.3,21.0,29.55,SSW,202,1.0,4.0,45,0.00,,,0.23,Rainwise IP-100,2013-04-13 19:26:00,
2013-04-13 15:32:00,40.3,24.0,29.55,WSW,247,2.0,4.0,50,0.00,,,0.23,Rainwise IP-100,2013-04-13 19:32:00,
2013-04-13 15:37:00,40.3,24.0,29.55,WSW,247,1.0,4.0,51,0.00,,,0.23,Rainwise IP-100,2013-04-13 19:37:00,
2013-04-13 15:42:00,40.3,23.0,29.55,SW,225,2.0,5.0,49,0.00,,,0.23,Rainwise IP-100,2013-04-13 19:42:00,
2013-04-13 15:47:00,40.0,24.0,29.55,SW,225,2.0,4.0,52,0.00,,,0.23,Rainwise IP-100,2013-04-13 19:47:00,
2013-04-13 15:52:00,40.2,24.0,29.54,West,270,1.0,4.0,51,0.00,,,0.23,Rainwise IP-100,2013-04-13 19:52:00,
2013-04-13 15:57:00,40.3,23.0,29.54,WSW,247,1.0,5.0,49,0.00,,,0.23,Rainwise IP-100,2013-04-13 19:57:00,
2013-04-13 16:02:00,40.5,24.0,29.54,WSW,247,2.0,2.0,49,0.00,,,0.23,Rainwise IP-100,2013-04-13 20:02:00,
2013-04-13 16:07:00,40.5,26.0,29.55,NW,315,1.0,4.0,53,0.00,,,0.23,Rainwise IP-100,2013-04-13 20:07:00,
2013-04-13 16:12:00,40.8,26.0,29.55,NW,315,1.0,2.0,52,0.00,,,0.23,Rainwise IP-100,2013-04-13 20:12:00,
2013-04-13 16:17:00,40.7,28.0,29.55,WNW,292,1.0,5.0,58,0.00,,,0.23,Rainwise IP-100,2013-04-13 20:17:00,
2013-04-13 16:22:00,40.6,28.0,29.56,SSE,157,0.0,3.0,58,0.00,,,0.23,Rainwise IP-100,2013-04-13 20:22:00,
2013-04-13 16:27:00,40.8,28.0,29.55,North,360,0.0,2.0,57,0.00,,,0.23,Rainwise IP-100,2013-04-13 20:27:00,
2013-04-13 16:32:00,40.7,26.0,29.55,North,360,0.0,4.0,54,0.00,,,0.23,Rainwise IP-100,2013-04-13 20:32:00,
2013-04-13 16:37:00,40.8,26.0,29.55,NW,315,2.0,5.0,54,0.00,,,0.23,Rainwise IP-100,2013-04-13 20:37:00,
2013-04-13 16:42:00,40.6,26.0,29.55,WNW,292,1.0,4.0,55,0.00,,,0.23,Rainwise IP-100,2013-04-13 20:42:00,
2013-04-13 16:47:00,40.6,26.0,29.54,NW,315,0.0,4.0,55,0.00,,,0.23,Rainwise IP-100,2013-04-13 20:47:00,
2013-04-13 16:52:00,40.7,28.0,29.55,WNW,292,2.0,6.0,58,0.00,,,0.23,Rainwise IP-100,2013-04-13 20:52:00,
2013-04-13 16:57:00,40.6,31.0,29.55,North,360,2.0,4.0,64,0.00,,,0.23,Rainwise IP-100,2013-04-13 20:57:00,
2013-04-13 17:02:00,40.7,29.0,29.56,WNW,292,1.0,3.0,62,0.00,,,0.23,Rainwise IP-100,2013-04-13 21:02:00,
2013-04-13 17:07:00,40.7,29.0,29.56,SSW,202,1.0,4.0,63,0.00,,,0.23,Rainwise IP-100,2013-04-13 21:07:00,
2013-04-13 17:12:00,40.5,29.0,29.56,NNW,337,1.0,4.0,61,0.00,,,0.23,Rainwise IP-100,2013-04-13 21:12:00,
2013-04-13 17:17:00,40.5,29.0,29.56,NW,315,0.0,4.0,60,0.00,,,0.23,Rainwise IP-100,2013-04-13 21:17:00,
2013-04-13 17:22:00,40.4,26.0,29.56,North,360,3.0,5.0,57,0.00,,,0.23,Rainwise IP-100,2013-04-13 21:22:00,
2013-04-13 17:27:00,40.5,28.0,29.56,East,90,0.0,3.0,58,0.00,,,0.23,Rainwise IP-100,2013-04-13 21:27:00,
2013-04-13 17:32:00,40.5,28.0,29.56,WNW,292,0.0,2.0,59,0.00,,,0.23,Rainwise IP-100,2013-04-13 21:32:00,
2013-04-13 17:37:00,40.6,28.0,29.56,North,360,1.0,6.0,57,0.00,,,0.23,Rainwise IP-100,2013-04-13 21:37:00,
2013-04-13 17:42:00,40.6,28.0,29.56,NNW,337,1.0,2.0,57,0.00,,,0.23,Rainwise IP-100,2013-04-13 21:42:00,
2013-04-13 17:47:00,40.6,28.0,29.56,NNW,337,1.0,2.0,57,0.00,,,0.23,Rainwise IP-100,2013-04-13 21:47:00,
2013-04-13 17:52:00,40.6,28.0,29.57,NW,315,0.0,6.0,56,0.00,,,0.23,Rainwise IP-100,2013-04-13 21:52:00,
2013-04-13 17:57:00,40.7,26.0,29.57,SW,225,2.0,3.0,55,0.00,,,0.23,Rainwise IP-100,2013-04-13 21:57:00,
2013-04-13 18:02:00,40.5,28.0,29.57,North,360,1.0,4.0,59,0.00,,,0.23,Rainwise IP-100,2013-04-13 22:02:00,
2013-04-13 18:07:00,40.3,29.0,29.57,SSE,157,1.0,6.0,63,0.00,,,0.23,Rainwise IP-100,2013-04-13 22:07:00,
2013-04-13 18:12:00,40.2,29.0,29.58,North,360,2.0,4.0,63,0.00,,,0.23,Rainwise IP-100,2013-04-13 22:12:00,
2013-04-13 18:17:00,40.1,29.0,29.58,NW,315,0.0,2.0,62,0.00,,,0.23,Rainwise IP-100,2013-04-13 22:17:00,
2013-04-13 18:22:00,40.1,28.0,29.58,NW,315,1.0,1.0,60,0.00,,,0.23,Rainwise IP-100,2013-04-13 22:22:00,
2013-04-13 18:27:00,39.9,28.0,29.58,NW,315,0.0,3.0,59,0.00,,,0.23,Rainwise IP-100,2013-04-13 22:27:00,
2013-04-13 18:32:00,39.9,26.0,29.58,NW,315,2.0,2.0,57,0.00,,,0.23,Rainwise IP-100,2013-04-13 22:32:00,
2013-04-13 18:37:00,39.8,26.0,29.58,NW,315,0.0,2.0,57,0.00,,,0.23,Rainwise IP-100,2013-04-13 22:37:00,
2013-04-13 18:42:00,39.8,26.0,29.58,North,360,0.0,2.0,55,0.00,,,0.23,Rainwise IP-100,2013-04-13 22:42:00,
2013-04-13 18:47:00,39.7,26.0,29.59,North,360,0.0,1.0,54,0.00,,,0.23,Rainwise IP-100,2013-04-13 22:47:00,
2013-04-13 18:52:00,39.6,24.0,29.59,North,360,0.0,2.0,51,0.00,,,0.23,Rainwise IP-100,2013-04-13 22:52:00,
2013-04-13 18:57:00,39.4,21.0,29.60,North,360,0.0,0.0,47,0.00,,,0.23,Rainwise IP-100,2013-04-13 22:57:00,
2013-04-13 19:02:00,39.3,18.0,29.60,NW,315,2.0,0.0,42,0.00,,,0.23,Rainwise IP-100,2013-04-13 23:02:00,
2013-04-13 19:07:00,39.1,23.0,29.60,NW,315,0.0,2.0,49,0.00,,,0.23,Rainwise IP-100,2013-04-13 23:07:00,
2013-04-13 19:12:00,39.1,23.0,29.60,NNW,337,1.0,2.0,50,0.00,,,0.23,Rainwise IP-100,2013-04-13 23:12:00,
2013-04-13 19:17:00,39.1,21.0,29.60,North,360,0.0,2.0,44,0.00,,,0.23,Rainwise IP-100,2013-04-13 23:17:00,
2013-04-13 19:23:00,38.9,21.0,29.61,North,360,0.0,0.0,47,0.00,,,0.23,Rainwise IP-100,2013-04-13 23:23:00,
2013-04-13 19:28:00,38.8,16.0,29.60,North,360,0.0,0.0,37,0.00,,,0.23,Rainwise IP-100,2013-04-13 23:28:00,
2013-04-13 19:33:00,38.6,16.0,29.61,North,360,0.0,0.0,38,0.00,,,0.23,Rainwise IP-100,2013-04-13 23:33:00,
2013-04-13 19:38:00,38.5,16.0,29.61,North,360,0.0,0.0,38,0.00,,,0.23,Rainwise IP-100,2013-04-13 23:38:00,
2013-04-13 19:43:00,38.5,14.0,29.62,North,360,0.0,0.0,34,0.00,,,0.23,Rainwise IP-100,2013-04-13 23:43:00,
2013-04-13 19:48:00,38.5,14.0,29.62,North,360,0.0,0.0,32,0.00,,,0.23,Rainwise IP-100,2013-04-13 23:48:00,
2013-04-13 19:53:00,38.3,11.0,29.62,North,360,0.0,0.0,31,0.00,,,0.23,Rainwise IP-100,2013-04-13 23:53:00,
2013-04-13 19:58:00,38.2,11.0,29.62,North,360,0.0,0.0,30,0.00,,,0.23,Rainwise IP-100,2013-04-13 23:58:00,
2013-04-13 20:03:00,38.1,11.0,29.62,North,360,0.0,0.0,30,0.00,,,0.23,Rainwise IP-100,2013-04-14 00:03:00,
2013-04-13 20:08:00,37.9,11.0,29.62,North,360,0.0,0.0,31,0.00,,,0.23,Rainwise IP-100,2013-04-14 00:08:00,
2013-04-13 20:13:00,37.9,11.0,29.62,North,360,0.0,0.0,31,0.00,,,0.23,Rainwise IP-100,2013-04-14 00:13:00,
2013-04-13 20:18:00,37.8,11.0,29.62,North,360,0.0,0.0,31,0.00,,,0.23,Rainwise IP-100,2013-04-14 00:18:00,
2013-04-13 20:23:00,37.8,11.0,29.62,North,360,0.0,0.0,29,0.00,,,0.23,Rainwise IP-100,2013-04-14 00:23:00,
2013-04-13 20:28:00,37.8,11.0,29.62,North,360,0.0,0.0,29,0.00,,,0.23,Rainwise IP-100,2013-04-14 00:28:00,
2013-04-13 20:33:00,37.7,8.0,29.62,North,360,0.0,0.0,28,0.00,,,0.23,Rainwise IP-100,2013-04-14 00:33:00,
2013-04-13 20:38:00,37.7,8.0,29.62,North,360,0.0,0.0,27,0.00,,,0.23,Rainwise IP-100,2013-04-14 00:38:00,
2013-04-13 20:43:00,37.7,8.0,29.62,North,360,0.0,0.0,26,0.00,,,0.23,Rainwise IP-100,2013-04-14 00:43:00,
2013-04-13 20:48:00,37.7,8.0,29.62,North,360,0.0,0.0,25,0.00,,,0.23,Rainwise IP-100,2013-04-14 00:48:00,
2013-04-13 20:53:00,37.6,8.0,29.63,North,360,0.0,0.0,25,0.00,,,0.23,Rainwise IP-100,2013-04-14 00:53:00,
2013-04-13 20:58:00,37.6,8.0,29.63,North,360,0.0,0.0,24,0.00,,,0.23,Rainwise IP-100,2013-04-14 00:58:00,
2013-04-13 21:03:00,37.5,8.0,29.63,North,360,0.0,0.0,24,0.00,,,0.23,Rainwise IP-100,2013-04-14 01:03:00,
2013-04-13 21:08:00,37.5,8.0,29.63,North,360,0.0,0.0,24,0.00,,,0.23,Rainwise IP-100,2013-04-14 01:08:00,
2013-04-13 21:13:00,37.5,8.0,29.63,North,360,0.0,0.0,24,0.00,,,0.23,Rainwise IP-100,2013-04-14 01:13:00,
2013-04-13 21:18:00,37.5,8.0,29.63,North,360,0.0,0.0,24,0.00,,,0.23,Rainwise IP-100,2013-04-14 01:18:00,
2013-04-13 21:23:00,37.5,8.0,29.63,North,360,0.0,0.0,24,0.00,,,0.23,Rainwise IP-100,2013-04-14 01:23:00,
2013-04-13 21:28:00,37.4,4.0,29.63,North,360,0.0,0.0,24,0.00,,,0.23,Rainwise IP-100,2013-04-14 01:28:00,
2013-04-13 21:33:00,37.4,4.0,29.63,North,360,0.0,0.0,24,0.00,,,0.23,Rainwise IP-100,2013-04-14 01:33:00,
2013-04-13 21:38:00,37.3,4.0,29.63,North,360,0.0,0.0,24,0.00,,,0.23,Rainwise IP-100,2013-04-14 01:38:00,
2013-04-13 21:43:00,37.3,4.0,29.63,North,360,0.0,0.0,24,0.00,,,0.23,Rainwise IP-100,2013-04-14 01:43:00,
2013-04-13 21:48:00,37.3,4.0,29.63,North,360,0.0,0.0,24,0.00,,,0.23,Rainwise IP-100,2013-04-14 01:48:00,
2013-04-13 21:53:00,37.3,4.0,29.63,North,360,0.0,0.0,24,0.00,,,0.23,Rainwise IP-100,2013-04-14 01:53:00,
2013-04-13 21:58:00,37.2,4.0,29.63,North,360,0.0,0.0,24,0.00,,,0.23,Rainwise IP-100,2013-04-14 01:58:00,
2013-04-13 22:03:00,37.2,4.0,29.64,North,360,0.0,0.0,24,0.00,,,0.23,Rainwise IP-100,2013-04-14 02:03:00,
2013-04-13 22:08:00,37.2,4.0,29.64,North,360,0.0,0.0,24,0.00,,,0.23,Rainwise IP-100,2013-04-14 02:08:00,
2013-04-13 22:13:00,37.2,4.0,29.64,North,360,0.0,0.0,24,0.00,,,0.23,Rainwise IP-100,2013-04-14 02:13:00,
2013-04-13 22:18:00,37.2,4.0,29.63,North,360,0.0,0.0,24,0.00,,,0.23,Rainwise IP-100,2013-04-14 02:18:00,
2013-04-13 22:23:00,37.2,4.0,29.63,North,360,0.0,0.0,24,0.00,,,0.23,Rainwise IP-100,2013-04-14 02:23:00,
2013-04-13 22:28:00,37.1,4.0,29.63,North,360,0.0,0.0,24,0.00,,,0.23,Rainwise IP-100,2013-04-14 02:28:00,
2013-04-13 22:33:00,37.2,4.0,29.64,North,360,0.0,0.0,24,0.00,,,0.23,Rainwise IP-100,2013-04-14 02:33:00,
2013-04-13 22:38:00,37.2,4.0,29.63,North,360,0.0,0.0,24,0.00,,,0.23,Rainwise IP-100,2013-04-14 02:38:00,
2013-04-13 22:43:00,37.1,4.0,29.63,North,360,0.0,0.0,24,0.00,,,0.23,Rainwise IP-100,2013-04-14 02:43:00,
2013-04-13 22:48:00,37.1,4.0,29.63,North,360,0.0,0.0,24,0.00,,,0.23,Rainwise IP-100,2013-04-14 02:48:00,
2013-04-13 22:53:00,37.1,4.0,29.63,North,360,0.0,0.0,24,0.00,,,0.23,Rainwise IP-100,2013-04-14 02:53:00,
2013-04-13 22:58:00,37.1,4.0,29.63,North,360,0.0,0.0,24,0.00,,,0.23,Rainwise IP-100,2013-04-14 02:58:00,
2013-04-13 23:03:00,37.1,4.0,29.63,North,360,0.0,0.0,23,0.00,,,0.23,Rainwise IP-100,2013-04-14 03:03:00,
2013-04-13 23:08:00,37.1,4.0,29.64,North,360,0.0,0.0,23,0.00,,,0.23,Rainwise IP-100,2013-04-14 03:08:00,
2013-04-13 23:13:00,37.1,4.0,29.64,North,360,0.0,0.0,23,0.00,,,0.23,Rainwise IP-100,2013-04-14 03:13:00,
2013-04-13 23:18:00,37.1,4.0,29.63,North,360,0.0,0.0,23,0.00,,,0.23,Rainwise IP-100,2013-04-14 03:18:00,
2013-04-13 23:23:00,37.1,4.0,29.63,North,360,0.0,0.0,23,0.00,,,0.23,Rainwise IP-100,2013-04-14 03:23:00,
2013-04-13 23:28:00,37.1,4.0,29.63,North,360,0.0,0.0,23,0.00,,,0.23,Rainwise IP-100,2013-04-14 03:28:00,
2013-04-13 23:33:00,37.0,4.0,29.63,North,360,0.0,0.0,23,0.00,,,0.23,Rainwise IP-100,2013-04-14 03:33:00,
2013-04-13 23:38:00,36.9,4.0,29.63,North,360,0.0,0.0,23,0.00,,,0.23,Rainwise IP-100,2013-04-14 03:38:00,
2013-04-13 23:43:00,36.9,4.0,29.63,East,90,2.0,0.0,24,0.00,,,0.23,Rainwise IP-100,2013-04-14 03:43:00,
2013-04-13 23:48:00,36.8,4.0,29.63,East,90,1.0,2.0,24,0.00,,,0.23,Rainwise IP-100,2013-04-14 03:48:00,
2013-04-13 23:53:00,36.7,4.0,29.62,East,90,1.0,2.0,24,0.00,,,0.23,Rainwise IP-100,2013-04-14 03:53:00,
2013-04-13 23:58:00,36.7,4.0,29.63,East,90,2.0,2.0,24,0.00,,,0.23,Rainwise IP-100,2013-04-14 03:58:00,